| time (UTC) | temp F | wind direction | speed knots | gust knots | rain 1hr in | rain 24hr in | rain mn in | humidity % | barometer mb |
| 20260503013054 | 65 | 93 | 3.5 | 7.0 | 0.00 | 0.00 | 0.00 | 33 | 1015.0 |
| 20260503011602 | 66 | 72 | 2.6 | 6.1 | 0.00 | 0.00 | 0.00 | 32 | 1015.1 |
| 20260503004606 | 66 | 88 | 0.9 | 3.5 | 0.00 | 0.00 | 0.00 | 32 | 1015.3 |
| 20260503003117 | 67 | 151 | 2.6 | 6.1 | 0.00 | 0.00 | 0.00 | 31 | 1015.4 |
| 20260503001621 | 68 | 51 | 1.7 | 6.1 | 0.00 | 0.00 | 0.00 | 31 | 1015.5 |
| 20260503000051 | 68 | 319 | 1.7 | 6.1 | 0.00 | 0.00 | 0.00 | 31 | 1015.6 |
| 20260502234555 | 67 | 117 | 2.6 | 7.0 | 0.00 | 0.00 | 0.00 | 32 | 1015.8 |
| 20260502233051 | 67 | 102 | 3.5 | 7.8 | 0.00 | 0.00 | 0.00 | 32 | 1016.0 |
| 20260502231554 | 67 | 51 | 3.5 | 7.8 | 0.00 | 0.00 | 0.00 | 32 | 1016.1 |
| 20260502230054 | 67 | 22 | 2.6 | 9.6 | 0.00 | 0.00 | 0.00 | 32 | 1016.1 |
| 20260502224556 | 67 | 93 | 2.6 | 7.0 | 0.00 | 0.00 | 0.00 | 32 | 1016.3 |
| 20260502223056 | 68 | 70 | 1.7 | 6.1 | 0.00 | 0.00 | 0.00 | 32 | 1016.5 |
| 20260502221552 | 67 | 77 | 1.7 | 7.8 | 0.00 | 0.00 | 0.00 | 33 | 1016.7 |
| 20260502220053 | 67 | 266 | 0.0 | 8.7 | 0.00 | 0.00 | 0.00 | 33 | 1017.0 |
| 20260502214549 | 66 | 348 | 5.2 | 9.6 | 0.00 | 0.00 | 0.00 | 34 | 1017.2 |
| 20260502213104 | 66 | 294 | 1.7 | 7.8 | 0.00 | 0.00 | 0.00 | 33 | 1017.5 |
| 20260502211554 | 66 | 19 | 0.9 | 7.8 | 0.00 | 0.00 | 0.00 | 33 | 1017.6 |
| 20260502210054 | 66 | 333 | 3.5 | 7.0 | 0.00 | 0.00 | 0.00 | 33 | 1017.6 |
| 20260502204557 | 64 | 16 | 3.5 | 10.4 | 0.00 | 0.00 | 0.00 | 37 | 1017.7 |
| 20260502203053 | 65 | 350 | 4.3 | 12.2 | 0.00 | 0.00 | 0.00 | 35 | 1017.8 |
| 20260502201552 | 65 | 72 | 4.3 | 8.7 | 0.00 | 0.00 | 0.00 | 34 | 1018.0 |
| 20260502200119 | 66 | 266 | 0.9 | 6.1 | 0.00 | 0.00 | 0.00 | 35 | 1018.1 |
| 20260502194605 | 64 | 111 | 2.6 | 7.8 | 0.00 | 0.00 | 0.00 | 36 | 1018.2 |
| 20260502193050 | 65 | 29 | 1.7 | 8.7 | 0.00 | 0.00 | 0.00 | 35 | 1018.4 |
| 20260502191558 | 65 | 332 | 1.7 | 9.6 | 0.00 | 0.00 | 0.00 | 34 | 1018.4 |
| 20260502190055 | 64 | 298 | 5.2 | 12.2 | 0.00 | 0.00 | 0.00 | 35 | 1018.5 |
| 20260502184554 | 65 | 9 | 3.5 | 9.6 | 0.00 | 0.00 | 0.00 | 35 | 1018.6 |
| 20260502183052 | 64 | 325 | 3.5 | 9.6 | 0.00 | 0.00 | 0.00 | 36 | 1018.7 |
| 20260502181552 | 64 | 142 | 7.0 | 12.2 | 0.00 | 0.00 | 0.00 | 36 | 1019.0 |
| 20260502163053 | 61 | 49 | 7.0 | 13.9 | 0.00 | 0.00 | 0.00 | 39 | 1019.4 |
| 20260502161552 | 60 | 47 | 5.2 | 14.8 | 0.00 | 0.00 | 0.00 | 41 | 1019.5 |
| 20260502151609 | 57 | 67 | 7.0 | 12.2 | 0.00 | 0.00 | 0.00 | 43 | 1019.3 |
| 20260502150125 | 56 | 99 | 5.2 | 9.6 | 0.00 | 0.00 | 0.00 | 45 | 1019.2 |
| 20260502130105 | 46 | 328 | 1.7 | 4.3 | 0.00 | 0.00 | 0.00 | 58 | 1018.3 |
| 20260502123052 | 46 | 275 | 1.7 | 4.3 | 0.00 | 0.00 | 0.00 | 55 | 1017.8 |
| 20260502121559 | 46 | 338 | 1.7 | 3.5 | 0.00 | 0.00 | 0.00 | 54 | 1017.7 |
| 20260502120112 | 45 | 19 | 1.7 | 5.2 | 0.00 | 0.00 | 0.00 | 55 | 1017.5 |
| 20260502114557 | 45 | 314 | 2.6 | 7.0 | 0.00 | 0.00 | 0.00 | 54 | 1017.4 |
| 20260502113113 | 45 | 309 | 3.5 | 7.0 | 0.00 | 0.00 | 0.00 | 54 | 1017.2 |
| 20260502111555 | 46 | 294 | 6.1 | 8.7 | 0.00 | 0.00 | 0.00 | 53 | 1016.9 |
| 20260502104552 | 46 | 292 | 8.7 | 10.4 | 0.00 | 0.00 | 0.00 | 53 | 1016.5 |
| 20260502103110 | 46 | 275 | 2.6 | 6.1 | 0.00 | 0.00 | 0.00 | 52 | 1016.3 |
| 20260502101554 | 46 | 262 | 4.3 | 7.8 | 0.00 | 0.00 | 0.00 | 51 | 1016.2 |
| 20260502090107 | 47 | 269 | 4.3 | 7.0 | 0.00 | 0.00 | 0.00 | 47 | 1015.4 |
| 20260502070056 | 49 | 243 | 2.6 | 6.1 | 0.00 | 0.00 | 0.00 | 40 | 1015.1 |
| 20260502064554 | 49 | 292 | 3.5 | 8.7 | 0.00 | 0.00 | 0.00 | 41 | 1015.2 |
| 20260502063115 | 48 | 279 | 3.5 | 8.7 | 0.00 | 0.00 | 0.00 | 42 | 1015.0 |
| 20260502061550 | 48 | 281 | 5.2 | 7.8 | 0.00 | 0.00 | 0.00 | 43 | 1014.9 |
| 20260502054607 | 48 | 266 | 3.5 | 6.1 | 0.00 | 0.00 | 0.00 | 41 | 1014.7 |
| 20260502053101 | 49 | 243 | 4.3 | 6.1 | 0.00 | 0.00 | 0.00 | 41 | 1014.7 |
| 20260502051554 | 49 | 266 | 3.5 | 6.1 | 0.00 | 0.00 | 0.00 | 40 | 1014.7 |
| 20260502050057 | 49 | 296 | 3.5 | 7.0 | 0.00 | 0.00 | 0.00 | 39 | 1014.5 |
| 20260502044553 | 50 | 294 | 3.5 | 7.0 | 0.00 | 0.00 | 0.00 | 38 | 1014.6 |
| 20260502043057 | 52 | 259 | 5.2 | 8.7 | 0.00 | 0.00 | 0.00 | 35 | 1014.6 |
| 20260502041552 | 54 | 275 | 3.5 | 5.2 | 0.00 | 0.00 | 0.00 | 33 | 1014.7 |
| 20260502040056 | 55 | 261 | 2.6 | 6.1 | 0.00 | 0.00 | 0.00 | 32 | 1014.7 |
| 20260502034552 | 57 | 266 | 3.5 | 5.2 | 0.00 | 0.00 | 0.00 | 29 | 1014.7 |
| 20260502033053 | 58 | 248 | 3.5 | 7.0 | 0.00 | 0.00 | 0.00 | 29 | 1014.6 |
| 20260502031556 | 61 | 288 | 2.6 | 7.0 | 0.00 | 0.00 | 0.00 | 26 | 1014.4 |
| 20260502030107 | 63 | 216 | 5.2 | 7.0 | 0.00 | 0.00 | 0.00 | 25 | 1014.1 |
| 20260502024554 | 64 | 232 | 4.3 | 8.7 | 0.00 | 0.00 | 0.00 | 24 | 1014.0 |
| 20260502023102 | 64 | 215 | 4.3 | 6.1 | 0.00 | 0.00 | 0.00 | 24 | 1013.9 |
| 20260502021555 | 65 | 237 | 2.6 | 6.1 | 0.00 | 0.00 | 0.00 | 23 | 1013.8 |
| 20260502020056 | 67 | 237 | 2.6 | 6.1 | 0.00 | 0.00 | 0.00 | 21 | 1013.8 |
| 20260502014549 | 69 | 268 | 6.1 | 10.4 | 0.00 | 0.00 | 0.00 | 20 | 1013.7 |